Hourly Data Report for August 18, 2015

All times are specified in Local Standard Time (LST). Add 1 hour to adjust for Daylight Saving Time where and when it is observed.

TORONTO INTL A
ONTARIO

43°40'36.000" N
79°37'50.000" W
173.40 m
6158731
71624
YYZ

Download Data

Hourly Data (August 2015)
Hourly Data Report for August 18, 2015
Temp Definition
°C
Dew Point Temp Definition
°C
Rel Hum Definition
%
Wind Dir Definition
10's deg

Wind Spd Definition
km/h
Visibility Definition
km
Stn Press Definition
kPa
Hmdx Definition


Wind Chill Definition


Weather Definition


TIME
00:00 Legend Double Dagger 24.3 20.7 80 29 7 24.1 99.48 32   LegendNANA
01:00 Legend Double Dagger 24.2 20.6 80 31 4 24.1 99.47 32   Mostly Cloudy
02:00 Legend Double Dagger 24.1 20.7 81 16 6 24.1 99.45 32   LegendNANA
03:00 Legend Double Dagger 23.5 20.3 82 18 9 24.1 99.41 31   LegendNANA
04:00 Legend Double Dagger 23.4 20.4 83 18 5 24.1 99.40 31   Mainly Clear
05:00 Legend Double Dagger 22.3 20.3 88 27 5 16.1 99.42 30   LegendNANA
06:00 Legend Double Dagger 22.6 20.2 86 27 4 19.3 99.42 30   LegendNANA
07:00 Legend Double Dagger 23.3 20.7 85 25 5 12.9 99.45 31   Mostly Cloudy
08:00 Legend Double Dagger 24.5 20.5 78 18 4 11.3 99.45 32   LegendNANA
09:00 Legend Double Dagger 24.9 20.7 77 16 5 14.5 99.43 33   LegendNANA
10:00 Legend Double Dagger 26.0 20.9 73 16 9 14.5 99.38 34   Cloudy
11:00 Legend Double Dagger 26.2 20.6 71 16 10 19.3 99.34 34   LegendNANA
12:00 Legend Double Dagger 25.0 21.0 78 16 17 14.5 99.40 33   LegendNANA
13:00 Legend Double Dagger 21.2 18.8 86 12 17 24.1 99.36 28   Rain Showers
14:00 Legend Double Dagger 22.0 19.6 86 15 5 24.1 99.26 29   LegendNANA
15:00 Legend Double Dagger 25.0 21.4 80 17 15 24.1 99.23 34   LegendNANA
16:00 Legend Double Dagger 24.8 20.2 75 15 15 24.1 99.19 33   Mostly Cloudy
17:00 Legend Double Dagger 24.5 20.5 78 17 13 24.1 99.15 32   LegendNANA
18:00 Legend Double Dagger 24.9 20.0 74 15 14 24.1 99.16 32   LegendNANA
19:00 Legend Double Dagger 23.4 20.0 81 14 13 24.1 99.19 31   Mostly Cloudy
20:00 Legend Double Dagger 22.5 19.9 85 13 11 24.1 99.21 30   LegendNANA
21:00 Legend Double Dagger 22.0 19.4 85 12 11 24.1 99.22 29   LegendNANA
22:00 Legend Double Dagger 21.7 19.8 89 12 4 24.1 99.26 29   Mainly Clear
23:00 Legend Double Dagger 21.0 19.7 92 9 7 24.1 99.20 28   LegendNANA

Notes on Data Quality.

Legend

  • E = Estimated
  • M = Missing
  • NA = Not Available
  • ‡ = Partner data that is not subject to review by the National Climate Archives
Date modified: